User: anonymous   Login
Location: Unspecified
(0.0000°N, 0.0000°E)
Time: 04:15:55
(UTC+00:00)
Language:

TBA - TO BE ASSIGNED - Orbit

View from above orbital plane
View from above orbital plane
View from above satellite
View from above satellite

Ground track
Ground track

The orbit is defined by the following mean orbital elements,

1 67735U          26145.59430566 +.00000000 +00000-0 +84629-3 0 00009
2 67735  97.2860 199.1395 0000461 226.6956 133.4248 15.33456288    06
Epoch (UTC): 25 May 2026 14:15:48
Eccentricity: 0.0000461
inclination: 97.2860°
perigee height: 465 km
apogee height: 466 km
right ascension of ascending node: 199.1395°
argument of perigee: 226.6956°
revolutions per day: 15.33456288
mean anomaly at epoch: 133.4248°

The dashed part of the orbit path shows where the satellite is in the earth's shadow,  

DLR